Date,TemperatureHighF,TemperatureAvgF,TemperatureLowF,DewpointHighF,DewpointAvgF,DewpointLowF,HumidityHigh,HumidityAvg,HumidityLow,PressureMaxIn,PressureMinIn,WindSpeedMaxMPH,WindSpeedAvgMPH,GustSpeedMaxMPH,PrecipitationSumIn
2013-1-1,35,26,16,27,17,9,82,69,60,30.06,29.86,30,5,30,0.00
2013-1-2,25,21,14,21,15,8,87,78,67,30.27,30.01,22,3,22,0.00
2013-1-3,30,22,11,26,17,6,90,83,75,30.27,30.00,22,3,22,0.02
2013-1-4,35,32,28,27,25,21,82,75,71,30.02,29.90,40,8,40,0.00
2013-1-5,36,33,31,29,26,24,78,75,64,30.31,30.02,27,3,27,0.00
2013-1-6,38,35,32,31,29,24,87,80,73,30.09,29.90,21,3,27,0.02
2013-1-7,34,29,26,31,23,21,88,80,67,30.43,30.09,21,2,21,0.00
2013-1-8,40,32,26,28,23,18,79,71,58,30.36,30.18,15,2,15,0.00
2013-1-9,49,37,28,36,29,22,83,72,61,30.33,29.95,33,5,33,0.00
2013-1-10,41,37,34,32,30,28,84,74,64,30.62,30.33,32,2,32,0.00
2013-1-11,43,39,34,40,33,26,90,79,64,30.46,29.92,22,4,22,0.18
2013-1-12,57,48,40,50,44,38,94,86,76,30.02,29.95,15,2,15,0.00
2013-1-13,68,56,47,57,50,44,92,83,67,29.98,29.73,22,4,28,0.00
2013-1-14,52,37,29,49,30,20,90,75,65,30.41,29.73,30,3,30,0.00
2013-1-15,35,30,28,24,22,20,79,71,56,30.43,30.22,14,1,14,0.00
2013-1-16,38,33,29,30,26,23,84,75,63,30.22,29.79,20,3,20,0.00
2013-1-17,36,26,18,29,19,11,88,74,63,30.22,29.85,36,4,36,0.00
2013-1-18,32,21,13,17,12,7,89,70,48,30.45,30.06,21,3,21,0.02
2013-1-19,48,42,32,30,25,17,58,51,39,30.06,29.60,20,5,34,0.01
2013-1-20,48,32,20,36,20,10,87,63,43,30.10,29.43,46,10,46,0.01
2013-1-21,22,20,15,14,10,7,76,67,62,30.10,29.90,26,4,26,0.00
2013-1-22,15,11,8,8,1,-4,86,64,47,30.22,29.92,34,7,34,0.00
2013-1-23,13,8,4,9,4,0,88,84,73,30.28,30.16,20,2,20,0.00
2013-1-24,14,9,3,9,5,0,91,83,75,30.57,30.15,32,2,32,0.10
2013-1-25,16,12,8,11,8,5,88,84,70,30.56,30.16,8,2,10,0.00
2013-1-26,23,14,6,18,11,3,92,84,66,30.46,30.17,10,1,14,0.00
2013-1-27,27,22,18,18,16,13,90,79,62,30.63,30.45,10,2,10,0.00
2013-1-28,39,31,21,39,28,16,99,90,74,30.46,29.89,16,3,16,0.40
2013-1-29,52,39,30,51,38,30,100,99,97,30.11,29.78,16,2,16,0.45
2013-1-30,64,56,50,56,50,48,98,82,67,29.78,29.04,38,5,38,0.05
2013-1-31,54,31,22,51,23,10,95,72,49,29.73,29.03,50,10,50,0.18
2013-2-1,22,19,17,17,13,8,90,76,59,30.24,29.73,33,6,33,0.06
2013-2-2,20,17,14,14,10,6,85,72,63,30.24,30.03,22,4,22,0.00
2013-2-3,24,18,12,17,13,9,91,80,58,30.03,29.84,22,2,22,0.00
2013-2-4,22,19,16,14,12,9,89,73,59,30.00,29.89,26,4,26,0.00
2013-2-5,26,20,15,19,15,12,91,79,67,30.03,29.90,12,1,15,0.00
2013-2-6,27,23,16,24,16,10,91,76,57,30.45,29.91,30,4,30,0.02
2013-2-7,30,22,14,23,15,10,90,72,60,30.52,30.15,16,3,16,0.00
2013-2-8,32,28,18,31,25,17,97,88,65,30.15,29.83,21,2,21,0.74
2013-2-9,21,17,12,18,16,10,95,92,89,30.48,30.13,12,1,12,0.02
2013-2-10,33,21,7,25,16,5,93,82,67,30.48,30.02,18,3,18,0.00
2013-2-11,51,37,32,41,30,24,88,76,64,30.02,29.58,44,8,44,0.06
2013-2-12,34,32,30,30,27,24,92,81,67,30.00,29.72,38,7,38,0.02
2013-2-13,39,31,25,25,24,21,89,76,55,29.96,29.77,14,1,15,0.00
2013-2-14,38,32,24,34,27,22,94,83,63,29.97,29.81,15,2,15,0.14
2013-2-15,38,34,25,34,25,16,93,69,53,30.10,29.81,36,6,36,0.00
2013-2-16,27,24,21,20,17,15,84,76,66,30.10,29.97,15,2,15,0.00
2013-2-17,22,16,12,18,11,6,91,81,69,30.23,29.95,40,5,40,0.07
2013-2-18,30,20,11,17,12,6,90,71,54,30.35,29.97,24,4,24,0.00
2013-2-19,44,33,26,36,25,17,89,71,56,29.97,29.57,40,7,40,0.12
2013-2-20,26,22,19,19,15,12,86,75,64,30.09,29.78,40,8,45,0.00
2013-2-21,21,17,12,17,13,7,91,84,78,30.48,30.07,39,6,39,0.00
2013-2-22,33,26,18,28,22,15,94,84,71,30.46,30.07,20,4,20,0.00
2013-2-23,38,33,31,33,29,24,96,85,78,30.07,29.90,16,2,16,0.06
2013-2-24,33,30,29,28,25,23,91,81,70,30.09,29.89,21,3,21,0.01
2013-2-25,36,32,28,29,27,25,91,82,68,30.28,30.09,24,2,24,0.00
2013-2-26,42,34,26,31,27,23,96,79,57,30.29,29.90,24,4,24,0.44
2013-2-27,34,32,31,33,31,30,98,96,94,29.90,29.61,15,2,15,0.61
2013-2-28,36,33,31,33,32,31,98,94,83,29.75,29.57,12,2,12,0.03
2013-3-1,33,30,27,32,26,22,96,87,81,29.96,29.75,28,3,28,0.03
2013-3-2,27,24,22,23,21,19,94,87,80,29.99,29.91,20,3,20,0.02
2013-3-3,24,22,21,21,19,16,95,86,72,29.94,29.90,26,3,26,0.02
2013-3-4,29,25,21,23,20,17,88,80,69,30.08,29.93,30,6,30,0.00
2013-3-5,31,26,24,25,22,20,92,84,76,30.15,30.03,18,2,24,0.00
2013-3-6,39,32,22,33,28,20,93,87,72,30.19,30.02,16,2,16,0.00
2013-3-7,36,33,30,33,30,24,95,87,73,30.32,30.17,18,2,18,0.00
2013-3-8,40,33,30,27,25,23,83,72,54,30.43,30.30,26,2,27,0.00
2013-3-9,45,34,25,34,28,23,97,78,57,30.46,30.27,12,2,12,0.00
2013-3-10,60,47,34,33,29,26,73,51,33,30.27,30.00,10,4,21,0.00
2013-3-11,53,50,47,44,33,29,72,52,47,30.02,29.70,28,6,28,0.00
2013-3-12,54,39,34,46,34,28,97,83,72,29.95,29.70,32,5,32,0.24
2013-3-13,37,31,23,29,24,18,88,75,59,29.97,29.85,28,5,28,0.00
2013-3-14,30,24,18,18,12,7,87,63,39,30.10,29.97,50,9,50,0.00
2013-3-15,37,30,24,31,23,14,96,75,56,30.09,29.73,34,5,34,0.03
2013-3-16,29,24,18,20,17,15,87,73,64,30.03,29.90,16,2,18,0.00
2013-3-17,30,24,18,21,16,10,91,72,51,30.40,30.03,21,2,21,0.01
2013-3-18,33,25,17,28,17,10,94,74,46,30.40,29.79,30,5,30,0.18
2013-3-19,36,31,26,33,26,19,94,82,60,29.86,29.72,36,5,36,0.00
2013-3-20,34,27,23,24,20,15,87,74,47,29.87,29.82,27,5,27,0.00
2013-3-21,31,25,20,24,18,13,92,73,49,29.86,29.75,27,5,27,0.00
2013-3-22,32,28,24,26,24,21,93,85,72,29.94,29.76,30,5,30,0.10
2013-3-23,36,32,28,27,25,22,91,76,62,30.03,29.92,33,5,33,0.00
2013-3-24,38,32,25,28,24,20,92,73,54,30.04,29.78,18,2,18,0.01
2013-3-25,39,34,31,30,27,24,91,74,62,29.79,29.65,22,3,22,0.00
2013-3-26,44,37,30,34,29,27,92,74,57,29.96,29.75,15,2,15,0.00
2013-3-27,44,36,32,34,30,26,96,78,58,30.09,29.94,24,4,24,0.00
2013-3-28,44,38,33,35,31,27,94,79,54,30.21,30.07,14,3,21,0.00
2013-3-29,49,41,36,34,31,26,86,70,47,30.22,30.13,20,2,20,0.00
2013-3-30,50,39,29,31,26,19,84,61,31,30.22,30.07,16,1,16,0.00
2013-3-31,56,44,37,42,32,24,93,65,37,30.07,29.63,24,4,24,0.08
2013-4-1,44,35,26,40,26,13,94,71,40,29.97,29.57,50,6,50,0.05
2013-4-2,33,28,23,26,20,16,89,73,49,30.13,29.96,45,7,45,0.08
2013-4-3,36,30,25,24,18,13,83,62,42,30.40,30.12,34,6,34,0.00
2013-4-4,55,36,25,24,20,17,75,54,23,30.38,29.92,20,2,20,0.00
2013-4-5,42,37,30,31,25,16,74,61,43,30.18,29.89,36,4,36,0.00
2013-4-6,44,35,26,22,19,13,74,53,33,30.36,30.07,21,3,21,0.00
2013-4-7,70,52,42,46,32,20,73,47,34,30.07,29.69,36,7,36,0.00
2013-4-8,53,44,39,43,36,32,93,73,53,30.16,29.76,18,2,21,0.06
2013-4-9,55,47,42,50,42,39,96,83,65,30.13,29.74,33,4,36,0.62
2013-4-10,45,40,38,44,39,36,97,96,92,30.10,29.91,18,2,21,0.52
2013-4-11,38,33,31,36,30,25,96,89,68,30.18,29.99,24,4,24,0.34
2013-4-12,50,40,33,47,37,30,99,90,74,30.02,29.55,34,6,34,0.78
2013-4-13,46,41,39,37,34,31,85,76,60,29.94,29.78,32,6,32,0.00
2013-4-14,44,38,34,34,29,26,91,70,53,30.23,29.94,26,3,26,0.05
2013-4-15,74,54,34,50,39,26,73,60,40,30.22,30.01,22,4,22,0.00
2013-4-16,64,55,42,58,49,35,98,80,66,30.25,29.97,30,4,30,0.15
2013-4-17,52,44,35,38,33,29,89,67,44,30.39,30.25,18,2,18,0.00
2013-4-18,76,60,42,57,47,32,76,64,46,30.28,29.71,30,6,30,0.01
2013-4-19,72,58,41,59,49,31,87,71,60,29.77,29.36,44,8,44,0.12
2013-4-20,42,38,33,33,26,20,88,64,52,30.44,29.74,38,7,38,0.01
2013-4-21,42,35,29,26,21,12,74,58,35,30.72,30.43,18,2,18,0.00
2013-4-22,58,45,32,31,26,21,68,48,31,30.65,30.35,22,4,26,0.00
2013-4-23,60,50,39,38,34,28,71,53,42,30.35,29.96,21,5,24,0.00
2013-4-24,68,53,39,54,43,33,91,69,51,29.99,29.59,36,6,36,0.13
2013-4-25,55,44,35,38,32,25,92,67,34,30.32,29.98,30,3,30,0.06
2013-4-26,52,44,36,39,33,28,94,68,44,30.50,30.32,18,2,18,0.02
2013-4-27,66,49,37,38,33,30,77,56,33,30.46,30.23,18,2,18,0.00
2013-4-28,74,60,50,47,39,34,85,48,25,30.23,30.02,21,4,21,0.05
2013-4-29,63,56,49,51,48,45,89,75,60,30.06,29.98,18,5,18,0.06
2013-4-30,72,62,54,54,52,50,90,71,49,30.22,30.04,18,4,18,0.02
2013-5-1,77,65,57,51,43,33,76,48,22,30.34,30.22,20,3,20,0.00
2013-5-2,74,64,53,44,38,32,50,38,26,30.41,30.26,18,2,18,0.00
2013-5-3,76,65,53,48,42,35,62,43,31,30.30,30.21,14,2,14,0.00
2013-5-4,74,62,49,44,40,36,65,46,30,30.28,30.14,15,1,15,0.00
2013-5-5,74,61,46,47,43,38,83,53,36,30.20,30.09,15,1,16,0.00
2013-5-6,77,62,51,46,39,29,61,44,20,30.16,30.02,18,1,18,0.00
2013-5-7,74,64,52,54,49,42,85,60,44,30.11,30.01,15,1,15,0.00
2013-5-8,69,62,56,59,54,47,93,76,61,30.05,29.91,16,1,16,0.02
2013-5-9,68,59,54,59,56,53,96,87,69,29.94,29.86,18,1,18,0.18
2013-5-10,72,60,52,61,56,50,95,85,64,29.94,29.71,10,0,10,0.34
2013-5-11,58,53,46,57,49,43,96,88,72,29.77,29.64,16,1,16,0.10
2013-5-12,50,44,38,45,36,30,94,75,50,29.91,29.68,38,3,38,0.03
2013-5-13,50,42,36,34,32,29,82,69,48,30.12,29.91,30,3,30,0.00
2013-5-14,58,45,32,37,33,29,94,65,38,30.17,29.97,10,1,10,0.00
2013-5-15,79,59,45,61,45,30,89,60,40,29.97,29.49,33,2,34,0.06
2013-5-16,74,62,50,48,42,34,78,51,28,30.00,29.70,26,2,26,0.00
2013-5-17,66,53,40,44,41,37,93,66,35,30.23,30.00,14,1,14,0.00
2013-5-18,69,57,43,49,43,38,86,62,42,30.27,30.14,14,1,14,0.00
2013-5-19,78,66,57,62,56,49,83,71,55,30.14,29.97,10,1,10,0.00
2013-5-20,80,70,62,65,61,57,85,73,59,30.02,29.84,15,1,16,0.00
2013-5-21,82,68,57,70,62,55,94,82,64,29.90,29.74,24,1,24,0.10
2013-5-22,84,70,57,72,64,55,98,85,58,29.78,29.61,15,1,15,0.21
2013-5-23,74,65,44,64,58,42,95,78,58,29.89,29.67,20,2,20,0.06
2013-5-24,49,42,37,42,38,36,96,87,64,30.19,29.89,21,3,21,0.28
2013-5-25,57,48,41,40,37,34,82,66,44,30.22,30.12,22,3,22,0.00
2013-5-26,62,52,45,40,37,34,80,58,37,30.20,30.11,16,3,24,0.00
2013-5-27,68,54,42,48,38,29,83,57,24,30.27,30.13,15,1,15,0.00
2013-5-28,62,56,52,58,49,36,95,77,49,30.15,29.93,8,1,8,0.48
2013-5-29,80,69,58,68,62,56,97,80,53,30.00,29.88,39,1,39,0.50
2013-5-30,89,76,64,68,63,57,89,67,34,30.09,30.00,14,1,14,0.00
2013-5-31,90,77,66,68,64,61,84,65,40,30.05,29.89,10,1,10,0.00
2013-6-1,87,74,66,69,64,61,94,73,50,29.95,29.73,16,1,16,0.36
2013-6-2,76,68,55,66,61,50,96,80,51,29.86,29.66,30,2,30,0.56
2013-6-3,62,55,50,50,44,40,84,68,47,30.01,29.86,18,2,22,0.00
2013-6-4,67,56,47,45,41,34,83,59,34,30.16,30.01,20,2,20,0.00
2013-6-5,68,58,50,52,44,36,78,60,40,30.22,30.09,10,1,10,0.00
2013-6-6,57,55,53,55,51,45,95,88,66,30.09,29.84,15,1,15,1.71
2013-6-7,58,56,54,58,55,53,100,97,95,29.85,29.78,6,0,6,0.10
2013-6-8,63,57,54,60,56,54,100,97,85,30.07,29.79,9,0,9,0.03
2013-6-9,76,64,53,60,55,51,96,75,51,30.19,30.06,14,1,14,0.00
2013-6-10,68,64,61,64,60,55,98,87,75,30.12,29.69,14,1,14,0.10
2013-6-11,65,62,56,63,59,53,99,92,79,29.83,29.62,18,1,22,0.21
2013-6-12,74,63,52,57,54,50,95,75,53,29.93,29.76,14,1,14,0.01
2013-6-13,64,59,54,57,56,52,95,88,74,29.78,29.51,26,1,26,0.69
2013-6-14,73,62,50,59,55,49,97,80,57,29.95,29.78,16,1,16,0.00
2013-6-15,74,63,51,55,50,41,88,64,34,30.04,29.92,12,1,12,0.00
2013-6-16,74,65,60,65,59,52,96,79,67,29.92,29.68,20,1,20,0.21
2013-6-17,77,67,60,64,59,56,94,76,52,29.91,29.80,16,1,16,0.00
2013-6-18,70,60,53,56,51,47,91,73,48,30.02,29.88,16,1,16,0.01
2013-6-19,67,58,48,51,46,38,92,66,36,30.20,30.02,15,1,15,0.00
2013-6-20,72,59,44,53,46,38,96,66,31,30.26,30.20,15,1,15,0.00
2013-6-21,80,65,50,59,53,46,91,66,45,30.27,30.15,15,0,15,0.00
2013-6-22,82,71,58,73,65,54,97,83,56,30.16,29.99,9,0,9,0.21
2013-6-23,86,77,67,73,69,64,98,78,58,30.05,29.96,15,1,15,0.01
2013-6-24,86,78,70,71,66,61,82,67,47,30.00,29.90,18,1,18,0.00
2013-6-25,82,74,67,71,66,63,93,75,63,29.92,29.76,18,1,18,0.06
2013-6-26,83,73,67,71,67,63,94,81,62,29.80,29.75,16,1,16,0.00
2013-6-27,79,71,63,72,67,62,95,86,73,29.79,29.58,9,0,9,0.00
2013-6-28,66,63,60,64,62,59,97,96,93,29.60,29.50,10,0,10,0.22
2013-6-29,75,65,60,65,61,60,98,89,66,29.68,29.49,15,1,15,0.62
2013-6-30,75,68,59,66,62,58,98,84,66,29.92,29.68,16,1,16,0.00
2013-7-1,66,63,60,63,61,58,97,92,85,30.04,29.91,21,2,21,0.26
2013-7-2,74,65,60,68,62,58,98,92,78,30.10,30.01,15,1,16,0.04
2013-7-3,84,71,63,75,68,62,98,91,72,30.14,30.07,10,0,10,0.33
2013-7-4,86,74,68,73,70,67,98,88,59,30.16,30.08,14,0,14,0.07
2013-7-5,83,74,69,75,70,67,96,88,71,30.12,30.04,9,0,15,0.15
2013-7-6,86,75,66,70,67,64,97,78,51,30.13,30.00,8,0,9,0.01
2013-7-7,84,76,68,73,69,65,98,81,61,30.03,29.91,20,1,20,0.63
2013-7-8,84,74,68,73,69,65,97,85,67,30.03,29.95,10,0,10,0.08
2013-7-9,82,74,68,72,69,67,96,86,66,30.03,29.88,9,0,9,0.09
2013-7-10,86,76,69,74,70,64,96,81,65,29.88,29.68,18,1,18,0.00
2013-7-11,76,69,62,66,60,57,92,76,59,30.01,29.79,20,2,20,0.00
2013-7-12,75,67,60,66,62,58,97,84,67,30.17,30.01,10,0,12,0.00
2013-7-13,80,72,62,70,66,60,97,84,68,30.23,30.15,8,0,8,0.00
2013-7-14,88,77,67,74,69,66,95,79,60,30.29,30.23,14,1,14,0.00
2013-7-15,90,79,73,75,70,62,91,74,47,30.28,30.20,9,1,10,0.00
2013-7-16,91,79,69,72,67,63,91,69,45,30.26,30.18,14,0,14,0.00
2013-7-17,93,82,72,79,73,67,87,74,54,30.20,30.03,15,0,16,0.00
2013-7-18,89,81,73,79,75,69,96,82,66,30.06,29.90,15,0,15,0.45
2013-7-19,92,82,70,77,72,66,93,73,51,29.91,29.67,32,2,32,0.25
2013-7-20,69,69,69,67,67,67,95,94,93,29.80,29.72,6,1,6,0.15
2013-7-21,76,70,61,62,60,58,90,70,56,30.00,29.96,16,1,16,0.00
2013-7-22,81,70,59,68,62,57,93,79,57,29.99,29.75,14,0,14,0.02
2013-7-23,86,74,67,71,67,59,96,79,50,29.76,29.58,21,1,21,0.02
2013-7-24,69,63,54,60,53,49,89,72,55,30.04,29.66,24,2,24,0.00
2013-7-25,75,63,51,57,53,49,93,73,44,30.12,30.04,15,1,15,0.00
2013-7-26,78,65,53,62,55,51,94,73,42,30.12,29.99,15,0,15,0.00
2013-7-27,80,69,60,68,62,54,95,79,59,30.00,29.81,8,0,8,0.10
2013-7-28,73,67,60,67,63,58,96,87,66,29.97,29.78,15,1,15,0.08
2013-7-29,73,65,58,60,57,54,94,77,54,30.11,29.96,18,0,18,0.00
2013-7-30,76,66,57,62,59,55,93,77,56,30.18,30.11,16,1,16,0.00
2013-7-31,82,69,58,67,61,56,94,78,48,30.14,29.91,8,0,9,0.00
2013-8-1,77,69,65,70,64,61,96,84,64,29.91,29.75,16,1,20,0.42
2013-8-2,75,66,60,65,62,59,96,87,63,29.88,29.81,9,0,9,0.22
2013-8-3,76,68,61,63,60,54,97,78,48,29.90,29.80,18,1,18,0.28
2013-8-4,71,66,60,60,56,53,89,73,57,30.03,29.90,27,2,27,0.00
2013-8-5,76,65,54,60,55,50,94,72,43,30.09,30.01,10,0,14,0.00
2013-8-6,80,67,56,63,58,53,92,74,44,30.04,29.97,14,0,14,0.00
2013-8-7,81,72,64,69,65,60,87,77,64,29.97,29.85,12,1,12,0.00
2013-8-8,82,73,67,72,68,64,96,85,72,29.93,29.87,16,0,16,0.05
2013-8-9,78,70,66,71,67,61,97,89,64,29.90,29.82,10,0,10,0.72
2013-8-10,72,66,57,62,57,49,94,74,48,30.07,29.90,20,1,20,0.00
2013-8-11,77,65,54,61,57,52,95,77,54,30.12,30.02,10,0,10,0.00
2013-8-12,78,68,60,65,61,57,91,78,54,30.04,29.83,9,0,9,0.00
2013-8-13,72,66,60,67,61,50,97,84,62,29.84,29.72,21,1,21,0.41
2013-8-14,69,61,55,56,52,50,93,74,52,30.06,29.82,22,2,22,0.01
2013-8-15,75,63,52,58,53,49,91,72,49,30.12,30.05,18,1,18,0.00
2013-8-16,78,66,54,60,56,51,92,72,49,30.19,30.10,12,0,12,0.00
2013-8-17,80,68,56,63,58,54,93,75,47,30.28,30.18,12,0,12,0.00
2013-8-18,81,69,59,65,61,56,92,76,49,30.24,30.08,9,0,9,0.00
2013-8-19,80,70,61,68,62,59,91,77,52,30.10,30.00,10,0,10,0.00
2013-8-20,85,72,61,68,62,58,91,74,49,30.10,30.03,15,1,15,0.00
2013-8-21,86,72,63,68,64,60,91,76,50,30.13,29.99,9,0,9,0.00
2013-8-22,85,74,66,72,67,60,88,78,62,30.00,29.87,20,1,20,0.00
2013-8-23,73,66,57,62,59,54,92,78,59,30.20,29.95,18,1,18,0.00
2013-8-24,77,64,54,59,54,49,95,73,38,30.35,30.20,14,0,14,0.00
2013-8-25,83,69,54,63,57,52,93,68,40,30.33,30.10,10,0,10,0.01
2013-8-26,77,70,65,72,66,61,96,89,69,30.12,29.90,14,0,14,1.11
2013-8-27,84,73,68,74,70,67,97,90,71,29.92,29.85,10,0,10,0.00
2013-8-28,82,74,69,73,70,67,96,87,71,29.92,29.82,15,1,15,0.01
2013-8-29,81,72,66,73,69,64,98,89,68,30.02,29.92,15,1,15,0.00
2013-8-30,84,73,63,72,67,62,96,82,55,30.00,29.72,8,0,8,0.01
2013-8-31,78,73,69,73,70,67,97,91,81,29.83,29.68,16,0,16,0.20
2013-9-1,80,72,68,71,68,66,97,88,73,29.83,29.73,16,0,16,0.12
2013-9-2,83,72,64,74,68,59,97,90,70,29.76,29.63,20,0,20,0.18
2013-9-3,67,64,62,60,58,57,87,82,73,29.91,29.75,18,1,18,0.01
2013-9-4,79,67,56,64,57,52,92,73,40,29.96,29.91,22,1,22,0.01
2013-9-5,67,60,51,61,50,42,88,68,48,30.20,29.94,24,1,24,0.00
2013-9-6,71,57,46,54,48,43,90,73,47,30.28,30.07,9,0,9,0.00
2013-9-7,64,60,53,60,55,50,92,86,74,30.07,29.83,9,0,9,0.05
2013-9-8,66,61,49,64,52,44,97,74,48,30.10,29.82,28,2,28,0.06
2013-9-9,78,61,47,62,53,44,92,76,52,30.15,29.93,9,0,9,0.00
2013-9-10,91,78,67,78,71,61,96,78,63,29.94,29.85,20,1,20,0.40
2013-9-11,91,82,76,77,73,67,86,73,54,29.98,29.84,14,1,14,0.00
2013-9-12,76,69,62,69,66,59,95,90,74,29.88,29.68,21,0,21,0.07
2013-9-13,63,55,51,60,52,47,95,90,84,29.99,29.70,24,2,24,0.78
2013-9-14,60,53,46,49,46,43,90,77,63,30.11,29.98,18,1,18,0.00
2013-9-15,68,57,47,56,50,43,93,78,61,30.14,30.02,20,0,20,0.05
2013-9-16,54,51,43,53,49,41,96,92,76,30.34,30.05,20,1,20,0.19
2013-9-17,64,51,40,50,44,38,96,79,47,30.45,30.25,10,0,10,0.00
2013-9-18,71,57,45,55,48,42,92,75,43,30.25,30.06,12,0,12,0.00
2013-9-19,77,63,51,61,55,47,93,76,48,30.07,29.95,9,0,9,0.00
2013-9-20,83,69,58,66,61,55,93,77,57,29.95,29.71,14,1,14,0.00
2013-9-21,72,64,55,63,60,54,97,88,69,29.71,29.56,20,1,20,0.66
2013-9-22,55,52,50,53,47,43,96,82,66,29.96,29.66,21,2,21,0.02
2013-9-23,56,51,44,45,44,42,93,75,63,30.10,29.96,18,2,18,0.00
2013-9-24,61,50,41,50,44,40,97,81,51,30.10,29.96,16,1,16,0.00
2013-9-25,66,53,44,54,47,42,94,81,52,29.97,29.91,15,0,15,0.00
2013-9-26,68,56,46,58,51,44,95,85,62,30.10,29.95,15,0,15,0.00
2013-9-27,65,55,48,56,52,46,97,88,71,30.21,30.10,18,1,18,0.00
2013-9-28,72,58,48,60,52,47,96,83,61,30.26,30.13,8,0,8,0.00
2013-9-29,74,63,51,58,54,48,90,72,52,30.13,29.94,9,1,10,0.00
2013-9-30,75,64,56,64,57,51,89,80,65,29.97,29.87,6,0,8,0.00
2013-10-1,74,65,59,63,60,57,95,83,65,29.97,29.85,10,0,10,0.00
2013-10-2,74,66,58,65,60,53,93,83,58,30.03,29.85,20,1,20,0.00
2013-10-3,71,60,51,59,53,47,95,80,45,30.08,29.97,8,0,8,0.00
2013-10-4,64,61,59,63,59,54,97,93,82,30.02,29.93,6,0,6,0.31
2013-10-5,62,60,59,60,58,56,96,92,84,30.05,29.98,9,0,9,0.03
2013-10-6,79,69,60,72,65,58,97,88,75,29.99,29.68,12,0,12,0.23
2013-10-7,73,62,51,66,57,48,95,83,73,29.98,29.55,24,2,24,0.38
2013-10-8,61,53,46,50,46,43,95,81,59,30.31,29.98,18,1,18,0.00
2013-10-9,66,51,42,54,46,41,96,83,52,30.37,30.25,12,0,12,0.00
2013-10-10,64,51,41,51,45,39,95,82,51,30.24,30.12,8,0,9,0.00
2013-10-11,66,53,44,56,49,43,96,87,64,30.12,30.07,15,0,15,0.00
2013-10-12,74,57,44,54,46,37,97,73,27,30.16,30.08,8,0,8,0.00
2013-10-13,73,63,56,61,57,46,95,79,64,30.23,30.14,8,1,9,0.03
2013-10-14,62,57,48,60,53,46,97,89,69,30.28,30.19,14,0,14,0.15
2013-10-15,67,55,43,57,51,42,97,86,67,30.25,29.90,8,0,8,0.00
2013-10-16,65,61,57,59,55,50,95,81,66,29.91,29.70,6,1,14,0.13
2013-10-17,63,57,51,55,51,47,96,82,60,29.83,29.61,9,0,9,0.23
2013-10-18,59,53,49,53,46,40,96,78,49,29.85,29.65,24,1,24,0.05
2013-10-19,62,54,45,49,45,41,91,71,52,29.85,29.56,18,1,22,0.04
2013-10-20,55,48,42,45,42,38,90,80,59,29.94,29.68,16,1,16,0.01
2013-10-21,67,56,46,50,42,40,91,63,38,29.93,29.74,21,1,21,0.00
2013-10-22,54,47,40,49,38,29,95,73,46,29.80,29.67,26,2,26,0.17
2013-10-23,47,41,36,40,36,31,89,81,70,29.78,29.65,15,0,18,0.01
2013-10-24,48,40,34,38,34,31,94,80,56,29.95,29.73,28,2,28,0.19
2013-10-25,50,42,35,40,37,34,96,84,64,30.13,29.95,18,1,18,0.02
2013-10-26,47,44,39,38,34,30,91,69,54,30.08,29.73,28,2,28,0.01
2013-10-27,47,43,38,38,37,34,91,80,65,30.01,29.75,18,1,18,0.00
2013-10-28,48,42,30,41,33,25,87,72,49,30.36,29.98,21,1,21,0.00
2013-10-29,44,37,29,32,29,24,87,72,56,30.44,30.26,9,0,9,0.00
2013-10-30,54,43,38,44,39,32,94,85,62,30.26,30.06,9,0,9,0.01
2013-10-31,66,55,44,60,52,40,95,88,76,30.06,29.33,10,1,10,0.39
2013-11-1,65,58,49,60,51,44,94,78,57,29.62,29.12,34,5,34,0.17
2013-11-2,52,46,38,47,44,34,95,92,79,29.92,29.55,21,1,21,0.00
2013-11-3,39,35,30,34,26,23,84,69,58,30.50,29.93,20,2,20,0.46
2013-11-4,42,35,26,27,23,18,89,63,38,30.63,30.40,10,1,10,0.00
2013-11-5,58,47,37,38,31,22,62,54,46,30.42,30.26,10,1,10,0.00
2013-11-6,64,56,47,54,45,36,87,66,53,30.26,29.75,18,2,18,0.01
2013-11-7,58,45,40,55,39,32,94,81,60,29.93,29.74,28,3,28,0.25
2013-11-8,42,39,36,34,31,28,89,73,59,30.17,29.90,18,4,32,0.00
2013-11-9,50,43,36,43,33,29,87,69,53,30.17,29.71,16,2,16,0.01
2013-11-10,50,45,41,43,37,31,87,74,66,30.09,29.72,42,6,42,0.03
2013-11-11,46,38,30,37,32,26,95,80,58,30.12,29.88,28,3,28,0.29
2013-11-12,32,29,27,27,23,17,89,77,66,30.38,30.06,30,4,30,0.01
2013-11-13,39,31,21,28,21,14,79,68,55,30.43,30.06,21,4,27,0.00
2013-11-14,50,42,35,31,22,17,65,48,29,30.10,30.00,16,5,33,0.00
2013-11-15,52,45,40,28,23,19,53,41,36,30.12,30.04,18,2,18,0.00
2013-11-16,58,50,42,41,34,24,70,54,41,30.25,30.04,14,2,14,0.00
2013-11-17,61,54,50,55,49,41,93,82,70,30.04,29.30,28,6,28,0.12
2013-11-18,55,47,36,50,37,28,89,68,59,29.86,29.32,45,9,58,0.03
2013-11-19,37,35,29,29,26,21,75,70,64,30.45,29.86,33,4,33,0.00
2013-11-20,37,30,24,23,20,18,81,68,45,30.61,30.45,9,2,10,0.00
2013-11-21,40,34,30,23,18,16,66,52,48,30.49,30.42,16,4,16,0.00
2013-11-22,47,42,34,46,40,29,96,92,81,30.25,29.96,36,2,42,0.25
2013-11-23,36,29,20,29,23,11,93,77,56,30.17,30.00,40,7,40,0.07
2013-11-24,24,20,18,17,14,10,91,77,62,30.42,30.16,34,6,34,0.10
2013-11-25,34,27,18,21,15,11,87,62,39,30.42,30.12,22,3,22,0.00
2013-11-26,36,33,32,31,28,21,96,81,62,30.17,29.83,21,2,21,0.23
2013-11-27,34,30,23,33,28,18,99,91,76,29.89,29.61,33,5,33,0.24
2013-11-28,27,23,19,19,16,14,90,77,62,30.45,29.89,32,4,32,0.03
2013-11-29,28,23,19,21,17,14,96,79,65,30.77,30.46,18,1,18,0.00
2013-11-30,32,26,12,24,18,9,90,73,59,30.77,30.21,21,4,21,0.00
2013-12-1,39,34,30,34,29,24,94,82,70,30.22,29.97,8,2,10,0.04
2013-12-2,40,37,33,35,33,30,94,88,74,29.97,29.87,6,0,6,0.00
2013-12-3,40,33,29,32,30,27,94,86,67,30.04,29.92,6,0,9,0.00
2013-12-4,47,39,32,41,35,29,93,85,75,30.06,29.90,14,2,14,0.00
2013-12-5,63,51,41,55,45,33,87,80,62,30.01,29.73,24,5,24,0.04
2013-12-6,40,34,32,35,29,24,93,80,70,30.25,30.01,21,3,21,0.18
2013-12-7,32,28,25,27,20,16,88,71,54,30.58,30.25,26,4,26,0.00
2013-12-8,29,25,20,23,16,12,89,67,54,30.61,30.25,20,2,20,0.01
2013-12-9,41,34,26,36,30,23,95,84,69,30.26,29.85,33,5,33,0.05
2013-12-10,34,25,20,26,16,11,91,69,56,30.08,29.93,32,4,32,0.00
2013-12-11,26,22,16,20,14,9,91,71,57,30.29,30.07,28,5,32,0.03
2013-12-12,19,15,11,14,10,6,90,81,62,30.34,30.05,27,3,27,0.00
2013-12-13,23,18,16,19,13,8,90,78,67,30.43,30.03,20,4,30,0.04
2013-12-14,21,12,7,19,9,2,94,85,77,30.50,29.80,16,3,16,0.36
2013-12-15,25,20,15,23,17,12,94,88,69,29.85,29.63,24,3,26,0.39
2013-12-16,23,16,6,18,12,3,89,83,69,30.22,29.84,30,3,30,0.00
2013-12-17,28,20,7,26,17,4,91,88,79,30.20,29.93,9,2,16,0.11
2013-12-18,32,29,25,25,23,21,92,78,66,30.08,29.93,20,3,20,0.03
2013-12-19,43,36,28,34,28,19,86,72,60,30.06,29.91,22,2,22,0.00
2013-12-20,45,39,36,42,37,33,96,92,85,30.03,29.80,10,1,10,0.18
2013-12-21,54,39,32,51,38,31,100,96,85,29.90,29.72,24,2,24,0.65
2013-12-22,44,36,32,44,36,32,100,99,92,29.97,29.61,18,1,20,0.50
2013-12-23,42,36,28,39,34,26,98,94,86,30.27,29.96,20,2,21,0.01
2013-12-24,28,21,13,26,20,10,96,93,89,30.50,30.23,22,3,22,0.00
2013-12-25,24,16,7,18,12,5,94,85,74,30.55,30.24,15,2,15,0.00
2013-12-26,32,28,24,28,22,16,91,78,69,30.29,30.08,22,3,22,0.06
2013-12-27,34,28,22,28,23,15,88,80,72,30.30,30.09,18,2,18,0.01
2013-12-28,44,39,33,36,32,27,91,77,64,30.09,29.94,22,3,22,0.00
2013-12-29,46,41,28,40,33,25,95,75,56,29.94,29.62,33,3,33,0.09
2013-12-30,28,18,15,26,14,10,91,84,77,30.26,29.76,39,4,39,0.00
2013-12-31,26,19,15,20,12,5,84,74,59,30.25,29.98,39,4,39,0.00
2014-1-1,21,18,14,15,12,8,89,76,63,30.43,30.25,27,3,27,0.00
2014-1-2,15,12,8,13,10,6,90,89,88,30.34,30.03,34,5,34,0.31